Index of /20260504/WXO-DD/model_caps/3km/12/004
Name Last modified Size Description
Parent Directory -
20260504T12Z_MSC_CAPS_AbsoluteVorticity_IsbL-0250_RLatLon0.03_PT004H.grib2 2026-05-04 18:10 1.1M
20260504T12Z_MSC_CAPS_AbsoluteVorticity_IsbL-0500_RLatLon0.03_PT004H.grib2 2026-05-04 18:10 1.1M
20260504T12Z_MSC_CAPS_AbsoluteVorticity_IsbL-0700_RLatLon0.03_PT004H.grib2 2026-05-04 18:10 1.1M
20260504T12Z_MSC_CAPS_AbsoluteVorticity_IsbL-0850_RLatLon0.03_PT004H.grib2 2026-05-04 18:10 1.2M
20260504T12Z_MSC_CAPS_AbsoluteVorticity_IsbL-1000_RLatLon0.03_PT004H.grib2 2026-05-04 18:10 1.4M
20260504T12Z_MSC_CAPS_AirDensity_AGL-120m_RLatLon0.03_PT004H.grib2 2026-05-04 18:10 1.4M
20260504T12Z_MSC_CAPS_AirDensity_AGL-40m_RLatLon0.03_PT004H.grib2 2026-05-04 18:10 1.5M
20260504T12Z_MSC_CAPS_AirDensity_AGL-80m_RLatLon0.03_PT004H.grib2 2026-05-04 18:10 1.4M
20260504T12Z_MSC_CAPS_AirTemp_AGL-120m_RLatLon0.03_PT004H.grib2 2026-05-04 18:10 1.4M
20260504T12Z_MSC_CAPS_AirTemp_AGL-2m_RLatLon0.03_PT004H.grib2 2026-05-04 18:10 1.8M
20260504T12Z_MSC_CAPS_AirTemp_AGL-40m_RLatLon0.03_PT004H.grib2 2026-05-04 18:10 1.5M
20260504T12Z_MSC_CAPS_AirTemp_AGL-80m_RLatLon0.03_PT004H.grib2 2026-05-04 18:10 1.5M
20260504T12Z_MSC_CAPS_AirTemp_IsbL-0050_RLatLon0.03_PT004H.grib2 2026-05-04 18:10 699K
20260504T12Z_MSC_CAPS_AirTemp_IsbL-0100_RLatLon0.03_PT004H.grib2 2026-05-04 18:10 959K
20260504T12Z_MSC_CAPS_AirTemp_IsbL-0150_RLatLon0.03_PT004H.grib2 2026-05-04 18:10 748K
20260504T12Z_MSC_CAPS_AirTemp_IsbL-0175_RLatLon0.03_PT004H.grib2 2026-05-04 18:10 768K
20260504T12Z_MSC_CAPS_AirTemp_IsbL-0200_RLatLon0.03_PT004H.grib2 2026-05-04 18:10 790K
20260504T12Z_MSC_CAPS_AirTemp_IsbL-0225_RLatLon0.03_PT004H.grib2 2026-05-04 18:10 799K
20260504T12Z_MSC_CAPS_AirTemp_IsbL-0250_RLatLon0.03_PT004H.grib2 2026-05-04 18:10 790K
20260504T12Z_MSC_CAPS_AirTemp_IsbL-0275_RLatLon0.03_PT004H.grib2 2026-05-04 18:10 783K
20260504T12Z_MSC_CAPS_AirTemp_IsbL-0300_RLatLon0.03_PT004H.grib2 2026-05-04 18:10 1.0M
20260504T12Z_MSC_CAPS_AirTemp_IsbL-0350_RLatLon0.03_PT004H.grib2 2026-05-04 18:10 753K
20260504T12Z_MSC_CAPS_AirTemp_IsbL-0400_RLatLon0.03_PT004H.grib2 2026-05-04 18:10 756K
20260504T12Z_MSC_CAPS_AirTemp_IsbL-0450_RLatLon0.03_PT004H.grib2 2026-05-04 18:10 769K
20260504T12Z_MSC_CAPS_AirTemp_IsbL-0500_RLatLon0.03_PT004H.grib2 2026-05-04 18:10 781K
20260504T12Z_MSC_CAPS_AirTemp_IsbL-0550_RLatLon0.03_PT004H.grib2 2026-05-04 18:10 952K
20260504T12Z_MSC_CAPS_AirTemp_IsbL-0600_RLatLon0.03_PT004H.grib2 2026-05-04 18:10 968K
20260504T12Z_MSC_CAPS_AirTemp_IsbL-0650_RLatLon0.03_PT004H.grib2 2026-05-04 18:10 1.0M
20260504T12Z_MSC_CAPS_AirTemp_IsbL-0700_RLatLon0.03_PT004H.grib2 2026-05-04 18:10 1.0M
20260504T12Z_MSC_CAPS_AirTemp_IsbL-0750_RLatLon0.03_PT004H.grib2 2026-05-04 18:10 1.0M
20260504T12Z_MSC_CAPS_AirTemp_IsbL-0800_RLatLon0.03_PT004H.grib2 2026-05-04 18:10 1.0M
20260504T12Z_MSC_CAPS_AirTemp_IsbL-0850_RLatLon0.03_PT004H.grib2 2026-05-04 18:10 1.1M
20260504T12Z_MSC_CAPS_AirTemp_IsbL-0875_RLatLon0.03_PT004H.grib2 2026-05-04 18:10 1.1M
20260504T12Z_MSC_CAPS_AirTemp_IsbL-0900_RLatLon0.03_PT004H.grib2 2026-05-04 18:10 1.1M
20260504T12Z_MSC_CAPS_AirTemp_IsbL-0925_RLatLon0.03_PT004H.grib2 2026-05-04 18:10 1.1M
20260504T12Z_MSC_CAPS_AirTemp_IsbL-0950_RLatLon0.03_PT004H.grib2 2026-05-04 18:10 1.1M
20260504T12Z_MSC_CAPS_AirTemp_IsbL-0970_RLatLon0.03_PT004H.grib2 2026-05-04 18:10 1.1M
20260504T12Z_MSC_CAPS_AirTemp_IsbL-0985_RLatLon0.03_PT004H.grib2 2026-05-04 18:10 1.1M
20260504T12Z_MSC_CAPS_AirTemp_IsbL-1000_RLatLon0.03_PT004H.grib2 2026-05-04 18:10 1.0M
20260504T12Z_MSC_CAPS_AirTemp_IsbL-1015_RLatLon0.03_PT004H.grib2 2026-05-04 18:10 1.1M
20260504T12Z_MSC_CAPS_Albedo_Sfc_RLatLon0.03_PT004H.grib2 2026-05-04 18:10 2.7M
20260504T12Z_MSC_CAPS_CAPE_Sfc_RLatLon0.03_PT004H.grib2 2026-05-04 18:10 203K
20260504T12Z_MSC_CAPS_CloudWater_EAtm_RLatLon0.03_PT004H.grib2 2026-05-04 18:10 1.5M
20260504T12Z_MSC_CAPS_ConvectivePrecip-Accum_Sfc_RLatLon0.03_PT004H.grib2 2026-05-04 18:10 1.5M
20260504T12Z_MSC_CAPS_DewPointDepression_AGL-120m_RLatLon0.03_PT004H.grib2 2026-05-04 18:10 2.0M
20260504T12Z_MSC_CAPS_DewPointDepression_AGL-2m_RLatLon0.03_PT004H.grib2 2026-05-04 18:10 2.1M
20260504T12Z_MSC_CAPS_DewPointDepression_AGL-40m_RLatLon0.03_PT004H.grib2 2026-05-04 18:10 2.1M
20260504T12Z_MSC_CAPS_DewPointDepression_AGL-80m_RLatLon0.03_PT004H.grib2 2026-05-04 18:10 2.0M
20260504T12Z_MSC_CAPS_DewPointDepression_IsbL-0050_RLatLon0.03_PT004H.grib2 2026-05-04 18:10 11K
20260504T12Z_MSC_CAPS_DewPointDepression_IsbL-0100_RLatLon0.03_PT004H.grib2 2026-05-04 18:10 79K
20260504T12Z_MSC_CAPS_DewPointDepression_IsbL-0150_RLatLon0.03_PT004H.grib2 2026-05-04 18:10 85K
20260504T12Z_MSC_CAPS_DewPointDepression_IsbL-0175_RLatLon0.03_PT004H.grib2 2026-05-04 18:10 196K
20260504T12Z_MSC_CAPS_DewPointDepression_IsbL-0200_RLatLon0.03_PT004H.grib2 2026-05-04 18:10 371K
20260504T12Z_MSC_CAPS_DewPointDepression_IsbL-0225_RLatLon0.03_PT004H.grib2 2026-05-04 18:10 618K
20260504T12Z_MSC_CAPS_DewPointDepression_IsbL-0250_RLatLon0.03_PT004H.grib2 2026-05-04 18:10 807K
20260504T12Z_MSC_CAPS_DewPointDepression_IsbL-0275_RLatLon0.03_PT004H.grib2 2026-05-04 18:10 928K
20260504T12Z_MSC_CAPS_DewPointDepression_IsbL-0300_RLatLon0.03_PT004H.grib2 2026-05-04 18:10 1.0M
20260504T12Z_MSC_CAPS_DewPointDepression_IsbL-0350_RLatLon0.03_PT004H.grib2 2026-05-04 18:10 1.0M
20260504T12Z_MSC_CAPS_DewPointDepression_IsbL-0400_RLatLon0.03_PT004H.grib2 2026-05-04 18:10 1.0M
20260504T12Z_MSC_CAPS_DewPointDepression_IsbL-0450_RLatLon0.03_PT004H.grib2 2026-05-04 18:10 1.1M
20260504T12Z_MSC_CAPS_DewPointDepression_IsbL-0500_RLatLon0.03_PT004H.grib2 2026-05-04 18:10 1.1M
20260504T12Z_MSC_CAPS_DewPointDepression_IsbL-0550_RLatLon0.03_PT004H.grib2 2026-05-04 18:10 1.1M
20260504T12Z_MSC_CAPS_DewPointDepression_IsbL-0600_RLatLon0.03_PT004H.grib2 2026-05-04 18:10 1.1M
20260504T12Z_MSC_CAPS_DewPointDepression_IsbL-0650_RLatLon0.03_PT004H.grib2 2026-05-04 18:10 1.2M
20260504T12Z_MSC_CAPS_DewPointDepression_IsbL-0700_RLatLon0.03_PT004H.grib2 2026-05-04 18:10 1.2M
20260504T12Z_MSC_CAPS_DewPointDepression_IsbL-0750_RLatLon0.03_PT004H.grib2 2026-05-04 18:10 1.2M
20260504T12Z_MSC_CAPS_DewPointDepression_IsbL-0800_RLatLon0.03_PT004H.grib2 2026-05-04 18:10 1.2M
20260504T12Z_MSC_CAPS_DewPointDepression_IsbL-0850_RLatLon0.03_PT004H.grib2 2026-05-04 18:10 1.3M
20260504T12Z_MSC_CAPS_DewPointDepression_IsbL-0875_RLatLon0.03_PT004H.grib2 2026-05-04 18:10 1.3M
20260504T12Z_MSC_CAPS_DewPointDepression_IsbL-0900_RLatLon0.03_PT004H.grib2 2026-05-04 18:10 1.3M
20260504T12Z_MSC_CAPS_DewPointDepression_IsbL-0925_RLatLon0.03_PT004H.grib2 2026-05-04 18:10 1.3M
20260504T12Z_MSC_CAPS_DewPointDepression_IsbL-0950_RLatLon0.03_PT004H.grib2 2026-05-04 18:10 1.3M
20260504T12Z_MSC_CAPS_DewPointDepression_IsbL-0970_RLatLon0.03_PT004H.grib2 2026-05-04 18:10 1.3M
20260504T12Z_MSC_CAPS_DewPointDepression_IsbL-0985_RLatLon0.03_PT004H.grib2 2026-05-04 18:10 1.3M
20260504T12Z_MSC_CAPS_DewPointDepression_IsbL-1000_RLatLon0.03_PT004H.grib2 2026-05-04 18:10 1.3M
20260504T12Z_MSC_CAPS_DewPointDepression_IsbL-1015_RLatLon0.03_PT004H.grib2 2026-05-04 18:10 1.3M
20260504T12Z_MSC_CAPS_DewPoint_AGL-120m_RLatLon0.03_PT004H.grib2 2026-05-04 18:10 3.6M
20260504T12Z_MSC_CAPS_DewPoint_AGL-2m_RLatLon0.03_PT004H.grib2 2026-05-04 18:10 2.2M
20260504T12Z_MSC_CAPS_DewPoint_AGL-40m_RLatLon0.03_PT004H.grib2 2026-05-04 18:10 3.7M
20260504T12Z_MSC_CAPS_DewPoint_AGL-80m_RLatLon0.03_PT004H.grib2 2026-05-04 18:10 3.6M
20260504T12Z_MSC_CAPS_DownwardLongwaveRadiationFlux-Accum_Sfc_RLatLon0.03_PT004H.grib2 2026-05-04 18:10 2.1M
20260504T12Z_MSC_CAPS_DownwardShortwaveRadiationFlux-Accum_NTAtm_RLatLon0.03_PT004H.grib2 2026-05-04 18:10 402K
20260504T12Z_MSC_CAPS_DownwardShortwaveRadiationFlux-Accum_Sfc_RLatLon0.03_PT004H.grib2 2026-05-04 18:10 2.1M
20260504T12Z_MSC_CAPS_FreezingRain-Accum_Sfc_RLatLon0.03_PT004H.grib2 2026-05-04 18:10 163K
20260504T12Z_MSC_CAPS_GeopotentialHeight_IsbL-0050_RLatLon0.03_PT004H.grib2 2026-05-04 18:10 645K
20260504T12Z_MSC_CAPS_GeopotentialHeight_IsbL-0100_RLatLon0.03_PT004H.grib2 2026-05-04 18:10 766K
20260504T12Z_MSC_CAPS_GeopotentialHeight_IsbL-0150_RLatLon0.03_PT004H.grib2 2026-05-04 18:10 616K
20260504T12Z_MSC_CAPS_GeopotentialHeight_IsbL-0175_RLatLon0.03_PT004H.grib2 2026-05-04 18:10 732K
20260504T12Z_MSC_CAPS_GeopotentialHeight_IsbL-0200_RLatLon0.03_PT004H.grib2 2026-05-04 18:10 746K
20260504T12Z_MSC_CAPS_GeopotentialHeight_IsbL-0225_RLatLon0.03_PT004H.grib2 2026-05-04 18:10 757K
20260504T12Z_MSC_CAPS_GeopotentialHeight_IsbL-0250_RLatLon0.03_PT004H.grib2 2026-05-04 18:10 769K
20260504T12Z_MSC_CAPS_GeopotentialHeight_IsbL-0275_RLatLon0.03_PT004H.grib2 2026-05-04 18:10 780K
20260504T12Z_MSC_CAPS_GeopotentialHeight_IsbL-0300_RLatLon0.03_PT004H.grib2 2026-05-04 18:10 784K
20260504T12Z_MSC_CAPS_GeopotentialHeight_IsbL-0350_RLatLon0.03_PT004H.grib2 2026-05-04 18:10 785K
20260504T12Z_MSC_CAPS_GeopotentialHeight_IsbL-0400_RLatLon0.03_PT004H.grib2 2026-05-04 18:10 781K
20260504T12Z_MSC_CAPS_GeopotentialHeight_IsbL-0450_RLatLon0.03_PT004H.grib2 2026-05-04 18:10 772K
20260504T12Z_MSC_CAPS_GeopotentialHeight_IsbL-0500_RLatLon0.03_PT004H.grib2 2026-05-04 18:10 765K
20260504T12Z_MSC_CAPS_GeopotentialHeight_IsbL-0550_RLatLon0.03_PT004H.grib2 2026-05-04 18:10 642K
20260504T12Z_MSC_CAPS_GeopotentialHeight_IsbL-0600_RLatLon0.03_PT004H.grib2 2026-05-04 18:10 636K
20260504T12Z_MSC_CAPS_GeopotentialHeight_IsbL-0650_RLatLon0.03_PT004H.grib2 2026-05-04 18:10 809K
20260504T12Z_MSC_CAPS_GeopotentialHeight_IsbL-0700_RLatLon0.03_PT004H.grib2 2026-05-04 18:10 811K
20260504T12Z_MSC_CAPS_GeopotentialHeight_IsbL-0750_RLatLon0.03_PT004H.grib2 2026-05-04 18:10 885K
20260504T12Z_MSC_CAPS_GeopotentialHeight_IsbL-0800_RLatLon0.03_PT004H.grib2 2026-05-04 18:10 893K
20260504T12Z_MSC_CAPS_GeopotentialHeight_IsbL-0850_RLatLon0.03_PT004H.grib2 2026-05-04 18:10 828K
20260504T12Z_MSC_CAPS_GeopotentialHeight_IsbL-0875_RLatLon0.03_PT004H.grib2 2026-05-04 18:10 821K
20260504T12Z_MSC_CAPS_GeopotentialHeight_IsbL-0900_RLatLon0.03_PT004H.grib2 2026-05-04 18:10 842K
20260504T12Z_MSC_CAPS_GeopotentialHeight_IsbL-0925_RLatLon0.03_PT004H.grib2 2026-05-04 18:10 838K
20260504T12Z_MSC_CAPS_GeopotentialHeight_IsbL-0950_RLatLon0.03_PT004H.grib2 2026-05-04 18:10 857K
20260504T12Z_MSC_CAPS_GeopotentialHeight_IsbL-0970_RLatLon0.03_PT004H.grib2 2026-05-04 18:10 875K
20260504T12Z_MSC_CAPS_GeopotentialHeight_IsbL-0985_RLatLon0.03_PT004H.grib2 2026-05-04 18:10 886K
20260504T12Z_MSC_CAPS_GeopotentialHeight_IsbL-1000_RLatLon0.03_PT004H.grib2 2026-05-04 18:10 895K
20260504T12Z_MSC_CAPS_GeopotentialHeight_IsbL-1015_RLatLon0.03_PT004H.grib2 2026-05-04 18:10 702K
20260504T12Z_MSC_CAPS_GeopotentialHeight_Sfc_RLatLon0.03_PT004H.grib2 2026-05-04 18:10 1.0M
20260504T12Z_MSC_CAPS_IcePellets-Accum_Sfc_RLatLon0.03_PT004H.grib2 2026-05-04 18:10 6.8K
20260504T12Z_MSC_CAPS_LatentHeatNetFlux_Sfc_RLatLon0.03_PT004H.grib2 2026-05-04 18:10 1.6M
20260504T12Z_MSC_CAPS_LiftedIndex-MU-VT_IsbL-0500_RLatLon0.03_PT004H.grib2 2026-05-04 18:10 3.4M
20260504T12Z_MSC_CAPS_MixedLayerThickness_Sfc_RLatLon0.03_PT004H.nc 2026-05-04 18:14 16M
20260504T12Z_MSC_CAPS_NetLongwaveRadiationFlux-Accum_Sfc_RLatLon0.03_PT004H.grib2 2026-05-04 18:10 2.6M
20260504T12Z_MSC_CAPS_NetShortwaveRadiationFlux-Accum_Sfc_RLatLon0.03_PT004H.grib2 2026-05-04 18:10 2.2M
20260504T12Z_MSC_CAPS_PlanetaryBoundaryLayerHeight_Sfc_RLatLon0.03_PT004H.grib2 2026-05-04 18:10 2.8M
20260504T12Z_MSC_CAPS_Precip-Accum_Sfc_RLatLon0.03_PT004H.grib2 2026-05-04 18:10 3.0M
20260504T12Z_MSC_CAPS_PrecipRate_Sfc_RLatLon0.03_PT004H.grib2 2026-05-04 18:10 256K
20260504T12Z_MSC_CAPS_PrecipType-Instant_Sfc_RLatLon0.03_PT004H.grib2 2026-05-04 18:10 1.4M
20260504T12Z_MSC_CAPS_Pressure_MSL_RLatLon0.03_PT004H.grib2 2026-05-04 18:10 929K
20260504T12Z_MSC_CAPS_Pressure_Sfc_RLatLon0.03_PT004H.grib2 2026-05-04 18:10 1.2M
20260504T12Z_MSC_CAPS_RadiativeTemp_Sfc_RLatLon0.03_PT004H.grib2 2026-05-04 18:10 2.1M
20260504T12Z_MSC_CAPS_Rain-Accum_Sfc_RLatLon0.03_PT004H.grib2 2026-05-04 18:10 1.3M
20260504T12Z_MSC_CAPS_RelativeHumidity_AGL-120m_RLatLon0.03_PT004H.grib2 2026-05-04 18:10 2.8M
20260504T12Z_MSC_CAPS_RelativeHumidity_AGL-2m_RLatLon0.03_PT004H.grib2 2026-05-04 18:10 2.9M
20260504T12Z_MSC_CAPS_RelativeHumidity_AGL-40m_RLatLon0.03_PT004H.grib2 2026-05-04 18:10 2.9M
20260504T12Z_MSC_CAPS_RelativeHumidity_AGL-80m_RLatLon0.03_PT004H.grib2 2026-05-04 18:10 2.8M
20260504T12Z_MSC_CAPS_RelativeHumidity_IsbL-0050_RLatLon0.03_PT004H.grib2 2026-05-04 18:10 717K
20260504T12Z_MSC_CAPS_RelativeHumidity_IsbL-0100_RLatLon0.03_PT004H.grib2 2026-05-04 18:10 853K
20260504T12Z_MSC_CAPS_RelativeHumidity_IsbL-0150_RLatLon0.03_PT004H.grib2 2026-05-04 18:10 595K
20260504T12Z_MSC_CAPS_RelativeHumidity_IsbL-0175_RLatLon0.03_PT004H.grib2 2026-05-04 18:10 470K
20260504T12Z_MSC_CAPS_RelativeHumidity_IsbL-0200_RLatLon0.03_PT004H.grib2 2026-05-04 18:10 628K
20260504T12Z_MSC_CAPS_RelativeHumidity_IsbL-0225_RLatLon0.03_PT004H.grib2 2026-05-04 18:10 841K
20260504T12Z_MSC_CAPS_RelativeHumidity_IsbL-0250_RLatLon0.03_PT004H.grib2 2026-05-04 18:10 1.1M
20260504T12Z_MSC_CAPS_RelativeHumidity_IsbL-0275_RLatLon0.03_PT004H.grib2 2026-05-04 18:10 1.3M
20260504T12Z_MSC_CAPS_RelativeHumidity_IsbL-0300_RLatLon0.03_PT004H.grib2 2026-05-04 18:10 1.6M
20260504T12Z_MSC_CAPS_RelativeHumidity_IsbL-0350_RLatLon0.03_PT004H.grib2 2026-05-04 18:10 1.9M
20260504T12Z_MSC_CAPS_RelativeHumidity_IsbL-0400_RLatLon0.03_PT004H.grib2 2026-05-04 18:10 2.0M
20260504T12Z_MSC_CAPS_RelativeHumidity_IsbL-0450_RLatLon0.03_PT004H.grib2 2026-05-04 18:10 1.9M
20260504T12Z_MSC_CAPS_RelativeHumidity_IsbL-0500_RLatLon0.03_PT004H.grib2 2026-05-04 18:10 2.0M
20260504T12Z_MSC_CAPS_RelativeHumidity_IsbL-0550_RLatLon0.03_PT004H.grib2 2026-05-04 18:10 2.0M
20260504T12Z_MSC_CAPS_RelativeHumidity_IsbL-0600_RLatLon0.03_PT004H.grib2 2026-05-04 18:10 2.2M
20260504T12Z_MSC_CAPS_RelativeHumidity_IsbL-0650_RLatLon0.03_PT004H.grib2 2026-05-04 18:10 2.2M
20260504T12Z_MSC_CAPS_RelativeHumidity_IsbL-0700_RLatLon0.03_PT004H.grib2 2026-05-04 18:10 2.2M
20260504T12Z_MSC_CAPS_RelativeHumidity_IsbL-0750_RLatLon0.03_PT004H.grib2 2026-05-04 18:10 2.2M
20260504T12Z_MSC_CAPS_RelativeHumidity_IsbL-0800_RLatLon0.03_PT004H.grib2 2026-05-04 18:10 2.3M
20260504T12Z_MSC_CAPS_RelativeHumidity_IsbL-0850_RLatLon0.03_PT004H.grib2 2026-05-04 18:10 2.5M
20260504T12Z_MSC_CAPS_RelativeHumidity_IsbL-0875_RLatLon0.03_PT004H.grib2 2026-05-04 18:10 2.5M
20260504T12Z_MSC_CAPS_RelativeHumidity_IsbL-0900_RLatLon0.03_PT004H.grib2 2026-05-04 18:10 2.5M
20260504T12Z_MSC_CAPS_RelativeHumidity_IsbL-0925_RLatLon0.03_PT004H.grib2 2026-05-04 18:10 2.6M
20260504T12Z_MSC_CAPS_RelativeHumidity_IsbL-0950_RLatLon0.03_PT004H.grib2 2026-05-04 18:10 2.7M
20260504T12Z_MSC_CAPS_RelativeHumidity_IsbL-0970_RLatLon0.03_PT004H.grib2 2026-05-04 18:10 2.7M
20260504T12Z_MSC_CAPS_RelativeHumidity_IsbL-0985_RLatLon0.03_PT004H.grib2 2026-05-04 18:10 2.8M
20260504T12Z_MSC_CAPS_RelativeHumidity_IsbL-1000_RLatLon0.03_PT004H.grib2 2026-05-04 18:10 2.9M
20260504T12Z_MSC_CAPS_RelativeHumidity_IsbL-1015_RLatLon0.03_PT004H.grib2 2026-05-04 18:10 2.9M
20260504T12Z_MSC_CAPS_Runoff-Accum_Sfc_RLatLon0.03_PT004H.grib2 2026-05-04 18:10 227K
20260504T12Z_MSC_CAPS_SeaIceAreaFraction_Sfc_RLatLon0.03_PT004H.nc 2026-05-04 18:14 15M
20260504T12Z_MSC_CAPS_SeaIceCompressiveStrength_Sfc_RLatLon0.03_PT004H.nc 2026-05-04 18:14 15M
20260504T12Z_MSC_CAPS_SeaIceDivergence_Sfc_RLatLon0.03_PT004H.nc 2026-05-04 18:14 15M
20260504T12Z_MSC_CAPS_SeaIceInternalPressure_Sfc_RLatLon0.03_PT004H.nc 2026-05-04 18:14 15M
20260504T12Z_MSC_CAPS_SeaIceShear_Sfc_RLatLon0.03_PT004H.nc 2026-05-04 18:14 15M
20260504T12Z_MSC_CAPS_SeaIceSnowTemp_Sfc_RLatLon0.03_PT004H.nc 2026-05-04 18:14 14M
20260504T12Z_MSC_CAPS_SeaIceSnowVolume_Sfc_RLatLon0.03_PT004H.nc 2026-05-04 18:14 15M
20260504T12Z_MSC_CAPS_SeaIceVelocityX_Sfc_RLatLon0.03_PT004H.nc 2026-05-04 18:14 15M
20260504T12Z_MSC_CAPS_SeaIceVelocityY_Sfc_RLatLon0.03_PT004H.nc 2026-05-04 18:14 15M
20260504T12Z_MSC_CAPS_SeaIceVolume_Sfc_RLatLon0.03_PT004H.nc 2026-05-04 18:14 15M
20260504T12Z_MSC_CAPS_SeaSurfaceHeight_Sfc_RLatLon0.03_PT004H.nc 2026-05-04 18:14 16M
20260504T12Z_MSC_CAPS_SeaWaterSalinity_DBS-0.5m_RLatLon0.03_PT004H.nc 2026-05-04 18:14 16M
20260504T12Z_MSC_CAPS_SeaWaterSalinity_DBS-all_RLatLon0.03_PT004H.nc 2026-05-04 18:14 107M
20260504T12Z_MSC_CAPS_SeaWaterTemp_DBS-0.5m_RLatLon0.03_PT004H.nc 2026-05-04 18:14 14M
20260504T12Z_MSC_CAPS_SeaWaterTemp_DBS-all_RLatLon0.03_PT004H.nc 2026-05-04 18:14 88M
20260504T12Z_MSC_CAPS_SeaWaterVelocityX_DBS-0.5m_RLatLon0.03_PT004H.nc 2026-05-04 18:14 17M
20260504T12Z_MSC_CAPS_SeaWaterVelocityX_DBS-all_RLatLon0.03_PT004H.nc 2026-05-04 18:14 212M
20260504T12Z_MSC_CAPS_SeaWaterVelocityY_DBS-0.5m_RLatLon0.03_PT004H.nc 2026-05-04 18:14 17M
20260504T12Z_MSC_CAPS_SeaWaterVelocityY_DBS-all_RLatLon0.03_PT004H.nc 2026-05-04 18:14 211M
20260504T12Z_MSC_CAPS_SensibleHeatNetFlux_Sfc_RLatLon0.03_PT004H.grib2 2026-05-04 18:10 1.8M
20260504T12Z_MSC_CAPS_ShowalterIndex_IsbL-0500_RLatLon0.03_PT004H.grib2 2026-05-04 18:10 4.3M
20260504T12Z_MSC_CAPS_Snow-Accum_Sfc_RLatLon0.03_PT004H.grib2 2026-05-04 18:10 2.2M
20260504T12Z_MSC_CAPS_SnowDensity_Sfc_RLatLon0.03_PT004H.grib2 2026-05-04 18:10 1.1M
20260504T12Z_MSC_CAPS_SnowDepthWaterEquivalent_Sfc_RLatLon0.03_PT004H.grib2 2026-05-04 18:10 651K
20260504T12Z_MSC_CAPS_SnowDepth_Sfc_RLatLon0.03_PT004H.grib2 2026-05-04 18:10 1.1M
20260504T12Z_MSC_CAPS_SoilTemp_DBS-0to10cm_RLatLon0.03_PT004H.grib2 2026-05-04 18:10 1.3M
20260504T12Z_MSC_CAPS_SoilTemp_Sfc_RLatLon0.03_PT004H.grib2 2026-05-04 18:10 1.9M
20260504T12Z_MSC_CAPS_SoilVolumetricIceContent_Sfc_RLatLon0.03_PT004H.grib2 2026-05-04 18:10 1.3M
20260504T12Z_MSC_CAPS_SoilVolumetricWaterContent_DBS-0to10cm_RLatLon0.03_PT004H.grib2 2026-05-04 18:10 1.2M
20260504T12Z_MSC_CAPS_SoilVolumetricWaterContent_DBS-0to1cm_RLatLon0.03_PT004H.grib2 2026-05-04 18:10 1.6M
20260504T12Z_MSC_CAPS_SpecificHumidity_AGL-120m_RLatLon0.03_PT004H.grib2 2026-05-04 18:10 1.8M
20260504T12Z_MSC_CAPS_SpecificHumidity_AGL-2m_RLatLon0.03_PT004H.grib2 2026-05-04 18:10 1.7M
20260504T12Z_MSC_CAPS_SpecificHumidity_AGL-40m_RLatLon0.03_PT004H.grib2 2026-05-04 18:10 1.5M
20260504T12Z_MSC_CAPS_SpecificHumidity_AGL-80m_RLatLon0.03_PT004H.grib2 2026-05-04 18:10 1.4M
20260504T12Z_MSC_CAPS_SpecificHumidity_IsbL-0050_RLatLon0.03_PT004H.grib2 2026-05-04 18:10 864K
20260504T12Z_MSC_CAPS_SpecificHumidity_IsbL-0100_RLatLon0.03_PT004H.grib2 2026-05-04 18:10 1.1M
20260504T12Z_MSC_CAPS_SpecificHumidity_IsbL-0150_RLatLon0.03_PT004H.grib2 2026-05-04 18:10 1.0M
20260504T12Z_MSC_CAPS_SpecificHumidity_IsbL-0175_RLatLon0.03_PT004H.grib2 2026-05-04 18:10 965K
20260504T12Z_MSC_CAPS_SpecificHumidity_IsbL-0200_RLatLon0.03_PT004H.grib2 2026-05-04 18:10 844K
20260504T12Z_MSC_CAPS_SpecificHumidity_IsbL-0225_RLatLon0.03_PT004H.grib2 2026-05-04 18:10 811K
20260504T12Z_MSC_CAPS_SpecificHumidity_IsbL-0250_RLatLon0.03_PT004H.grib2 2026-05-04 18:10 1.0M
20260504T12Z_MSC_CAPS_SpecificHumidity_IsbL-0275_RLatLon0.03_PT004H.grib2 2026-05-04 18:10 1.0M
20260504T12Z_MSC_CAPS_SpecificHumidity_IsbL-0300_RLatLon0.03_PT004H.grib2 2026-05-04 18:10 1.0M
20260504T12Z_MSC_CAPS_SpecificHumidity_IsbL-0350_RLatLon0.03_PT004H.grib2 2026-05-04 18:10 919K
20260504T12Z_MSC_CAPS_SpecificHumidity_IsbL-0400_RLatLon0.03_PT004H.grib2 2026-05-04 18:10 911K
20260504T12Z_MSC_CAPS_SpecificHumidity_IsbL-0450_RLatLon0.03_PT004H.grib2 2026-05-04 18:10 1.0M
20260504T12Z_MSC_CAPS_SpecificHumidity_IsbL-0500_RLatLon0.03_PT004H.grib2 2026-05-04 18:10 1.0M
20260504T12Z_MSC_CAPS_SpecificHumidity_IsbL-0550_RLatLon0.03_PT004H.grib2 2026-05-04 18:10 1.1M
20260504T12Z_MSC_CAPS_SpecificHumidity_IsbL-0600_RLatLon0.03_PT004H.grib2 2026-05-04 18:10 1.4M
20260504T12Z_MSC_CAPS_SpecificHumidity_IsbL-0650_RLatLon0.03_PT004H.grib2 2026-05-04 18:10 1.4M
20260504T12Z_MSC_CAPS_SpecificHumidity_IsbL-0700_RLatLon0.03_PT004H.grib2 2026-05-04 18:10 1.2M
20260504T12Z_MSC_CAPS_SpecificHumidity_IsbL-0750_RLatLon0.03_PT004H.grib2 2026-05-04 18:10 1.3M
20260504T12Z_MSC_CAPS_SpecificHumidity_IsbL-0800_RLatLon0.03_PT004H.grib2 2026-05-04 18:10 1.4M
20260504T12Z_MSC_CAPS_SpecificHumidity_IsbL-0850_RLatLon0.03_PT004H.grib2 2026-05-04 18:10 1.6M
20260504T12Z_MSC_CAPS_SpecificHumidity_IsbL-0875_RLatLon0.03_PT004H.grib2 2026-05-04 18:10 1.7M
20260504T12Z_MSC_CAPS_SpecificHumidity_IsbL-0900_RLatLon0.03_PT004H.grib2 2026-05-04 18:10 1.8M
20260504T12Z_MSC_CAPS_SpecificHumidity_IsbL-0925_RLatLon0.03_PT004H.grib2 2026-05-04 18:10 1.8M
20260504T12Z_MSC_CAPS_SpecificHumidity_IsbL-0950_RLatLon0.03_PT004H.grib2 2026-05-04 18:10 1.9M
20260504T12Z_MSC_CAPS_SpecificHumidity_IsbL-0970_RLatLon0.03_PT004H.grib2 2026-05-04 18:10 1.9M
20260504T12Z_MSC_CAPS_SpecificHumidity_IsbL-0985_RLatLon0.03_PT004H.grib2 2026-05-04 18:10 2.0M
20260504T12Z_MSC_CAPS_SpecificHumidity_IsbL-1000_RLatLon0.03_PT004H.grib2 2026-05-04 18:10 1.7M
20260504T12Z_MSC_CAPS_SpecificHumidity_IsbL-1015_RLatLon0.03_PT004H.grib2 2026-05-04 18:10 1.7M
20260504T12Z_MSC_CAPS_SpecificHumidity_Sfc_RLatLon0.03_PT004H.grib2 2026-05-04 18:10 2.1M
20260504T12Z_MSC_CAPS_StormRelativeHelicity_Sfc_RLatLon0.03_PT004H.grib2 2026-05-04 18:10 3.3M
20260504T12Z_MSC_CAPS_Thickness_IsbL-1000to0500_RLatLon0.03_PT004H.grib2 2026-05-04 18:10 467K
20260504T12Z_MSC_CAPS_TotalCloudCover_Sfc_RLatLon0.03_PT004H.grib2 2026-05-04 18:10 3.2M
20260504T12Z_MSC_CAPS_TurboclineDepth_Sfc_RLatLon0.03_PT004H.nc 2026-05-04 18:14 16M
20260504T12Z_MSC_CAPS_UpwardLongwaveRadiationFlux_NTAtm_RLatLon0.03_PT004H.grib2 2026-05-04 18:10 2.7M
20260504T12Z_MSC_CAPS_UpwardShortwaveRadiationFlux_NTAtm_RLatLon0.03_PT004H.grib2 2026-05-04 18:10 2.5M
20260504T12Z_MSC_CAPS_VerticalVelocity_IsbL-0250_RLatLon0.03_PT004H.grib2 2026-05-04 18:10 1.2M
20260504T12Z_MSC_CAPS_VerticalVelocity_IsbL-0500_RLatLon0.03_PT004H.grib2 2026-05-04 18:10 885K
20260504T12Z_MSC_CAPS_VerticalVelocity_IsbL-0700_RLatLon0.03_PT004H.grib2 2026-05-04 18:10 957K
20260504T12Z_MSC_CAPS_VerticalVelocity_IsbL-0850_RLatLon0.03_PT004H.grib2 2026-05-04 18:10 1.1M
20260504T12Z_MSC_CAPS_VerticalVelocity_IsbL-1000_RLatLon0.03_PT004H.grib2 2026-05-04 18:10 1.3M
20260504T12Z_MSC_CAPS_WindDir_AGL-10m_RLatLon0.03_PT004H.grib2 2026-05-04 18:10 2.4M
20260504T12Z_MSC_CAPS_WindDir_AGL-120m_RLatLon0.03_PT004H.grib2 2026-05-04 18:10 1.3M
20260504T12Z_MSC_CAPS_WindDir_AGL-40m_RLatLon0.03_PT004H.grib2 2026-05-04 18:10 1.4M
20260504T12Z_MSC_CAPS_WindDir_AGL-80m_RLatLon0.03_PT004H.grib2 2026-05-04 18:10 1.3M
20260504T12Z_MSC_CAPS_WindDir_IsbL-0050_RLatLon0.03_PT004H.grib2 2026-05-04 18:10 1.0M
20260504T12Z_MSC_CAPS_WindDir_IsbL-0100_RLatLon0.03_PT004H.grib2 2026-05-04 18:10 1.0M
20260504T12Z_MSC_CAPS_WindDir_IsbL-0150_RLatLon0.03_PT004H.grib2 2026-05-04 18:10 1.0M
20260504T12Z_MSC_CAPS_WindDir_IsbL-0175_RLatLon0.03_PT004H.grib2 2026-05-04 18:10 1.1M
20260504T12Z_MSC_CAPS_WindDir_IsbL-0200_RLatLon0.03_PT004H.grib2 2026-05-04 18:10 1.1M
20260504T12Z_MSC_CAPS_WindDir_IsbL-0225_RLatLon0.03_PT004H.grib2 2026-05-04 18:10 1.1M
20260504T12Z_MSC_CAPS_WindDir_IsbL-0250_RLatLon0.03_PT004H.grib2 2026-05-04 18:10 1.1M
20260504T12Z_MSC_CAPS_WindDir_IsbL-0275_RLatLon0.03_PT004H.grib2 2026-05-04 18:10 1.1M
20260504T12Z_MSC_CAPS_WindDir_IsbL-0300_RLatLon0.03_PT004H.grib2 2026-05-04 18:10 1.1M
20260504T12Z_MSC_CAPS_WindDir_IsbL-0350_RLatLon0.03_PT004H.grib2 2026-05-04 18:10 1.1M
20260504T12Z_MSC_CAPS_WindDir_IsbL-0400_RLatLon0.03_PT004H.grib2 2026-05-04 18:10 1.1M
20260504T12Z_MSC_CAPS_WindDir_IsbL-0450_RLatLon0.03_PT004H.grib2 2026-05-04 18:10 1.2M
20260504T12Z_MSC_CAPS_WindDir_IsbL-0500_RLatLon0.03_PT004H.grib2 2026-05-04 18:10 1.2M
20260504T12Z_MSC_CAPS_WindDir_IsbL-0550_RLatLon0.03_PT004H.grib2 2026-05-04 18:10 1.3M
20260504T12Z_MSC_CAPS_WindDir_IsbL-0600_RLatLon0.03_PT004H.grib2 2026-05-04 18:10 1.2M
20260504T12Z_MSC_CAPS_WindDir_IsbL-0650_RLatLon0.03_PT004H.grib2 2026-05-04 18:10 1.3M
20260504T12Z_MSC_CAPS_WindDir_IsbL-0700_RLatLon0.03_PT004H.grib2 2026-05-04 18:10 1.4M
20260504T12Z_MSC_CAPS_WindDir_IsbL-0750_RLatLon0.03_PT004H.grib2 2026-05-04 18:10 1.5M
20260504T12Z_MSC_CAPS_WindDir_IsbL-0800_RLatLon0.03_PT004H.grib2 2026-05-04 18:10 1.6M
20260504T12Z_MSC_CAPS_WindDir_IsbL-0850_RLatLon0.03_PT004H.grib2 2026-05-04 18:10 1.7M
20260504T12Z_MSC_CAPS_WindDir_IsbL-0875_RLatLon0.03_PT004H.grib2 2026-05-04 18:10 1.8M
20260504T12Z_MSC_CAPS_WindDir_IsbL-0900_RLatLon0.03_PT004H.grib2 2026-05-04 18:10 1.9M
20260504T12Z_MSC_CAPS_WindDir_IsbL-0925_RLatLon0.03_PT004H.grib2 2026-05-04 18:10 2.0M
20260504T12Z_MSC_CAPS_WindDir_IsbL-0950_RLatLon0.03_PT004H.grib2 2026-05-04 18:10 2.0M
20260504T12Z_MSC_CAPS_WindDir_IsbL-0970_RLatLon0.03_PT004H.grib2 2026-05-04 18:10 2.1M
20260504T12Z_MSC_CAPS_WindDir_IsbL-0985_RLatLon0.03_PT004H.grib2 2026-05-04 18:10 2.2M
20260504T12Z_MSC_CAPS_WindDir_IsbL-1000_RLatLon0.03_PT004H.grib2 2026-05-04 18:10 2.3M
20260504T12Z_MSC_CAPS_WindDir_IsbL-1015_RLatLon0.03_PT004H.grib2 2026-05-04 18:10 2.4M
20260504T12Z_MSC_CAPS_WindGust-Max_AGL-10m_RLatLon0.03_PT004H.grib2 2026-05-04 18:10 2.5M
20260504T12Z_MSC_CAPS_WindGust-Min_AGL-10m_RLatLon0.03_PT004H.grib2 2026-05-04 18:10 2.4M
20260504T12Z_MSC_CAPS_WindGust_AGL-10m_RLatLon0.03_PT004H.grib2 2026-05-04 18:10 2.4M
20260504T12Z_MSC_CAPS_WindSpeed_AGL-10m_RLatLon0.03_PT004H.grib2 2026-05-04 18:10 2.1M
20260504T12Z_MSC_CAPS_WindSpeed_AGL-120m_RLatLon0.03_PT004H.grib2 2026-05-04 18:10 1.2M
20260504T12Z_MSC_CAPS_WindSpeed_AGL-40m_RLatLon0.03_PT004H.grib2 2026-05-04 18:10 1.6M
20260504T12Z_MSC_CAPS_WindSpeed_AGL-80m_RLatLon0.03_PT004H.grib2 2026-05-04 18:10 1.5M
20260504T12Z_MSC_CAPS_WindSpeed_IsbL-0050_RLatLon0.03_PT004H.grib2 2026-05-04 18:10 952K
20260504T12Z_MSC_CAPS_WindSpeed_IsbL-0100_RLatLon0.03_PT004H.grib2 2026-05-04 18:10 973K
20260504T12Z_MSC_CAPS_WindSpeed_IsbL-0150_RLatLon0.03_PT004H.grib2 2026-05-04 18:10 1.1M
20260504T12Z_MSC_CAPS_WindSpeed_IsbL-0175_RLatLon0.03_PT004H.grib2 2026-05-04 18:10 1.1M
20260504T12Z_MSC_CAPS_WindSpeed_IsbL-0200_RLatLon0.03_PT004H.grib2 2026-05-04 18:10 944K
20260504T12Z_MSC_CAPS_WindSpeed_IsbL-0225_RLatLon0.03_PT004H.grib2 2026-05-04 18:10 961K
20260504T12Z_MSC_CAPS_WindSpeed_IsbL-0250_RLatLon0.03_PT004H.grib2 2026-05-04 18:10 1.0M
20260504T12Z_MSC_CAPS_WindSpeed_IsbL-0275_RLatLon0.03_PT004H.grib2 2026-05-04 18:10 1.0M
20260504T12Z_MSC_CAPS_WindSpeed_IsbL-0300_RLatLon0.03_PT004H.grib2 2026-05-04 18:10 1.0M
20260504T12Z_MSC_CAPS_WindSpeed_IsbL-0350_RLatLon0.03_PT004H.grib2 2026-05-04 18:10 1.0M
20260504T12Z_MSC_CAPS_WindSpeed_IsbL-0400_RLatLon0.03_PT004H.grib2 2026-05-04 18:10 1.0M
20260504T12Z_MSC_CAPS_WindSpeed_IsbL-0450_RLatLon0.03_PT004H.grib2 2026-05-04 18:10 1.0M
20260504T12Z_MSC_CAPS_WindSpeed_IsbL-0500_RLatLon0.03_PT004H.grib2 2026-05-04 18:10 1.4M
20260504T12Z_MSC_CAPS_WindSpeed_IsbL-0550_RLatLon0.03_PT004H.grib2 2026-05-04 18:10 1.4M
20260504T12Z_MSC_CAPS_WindSpeed_IsbL-0600_RLatLon0.03_PT004H.grib2 2026-05-04 18:10 1.3M
20260504T12Z_MSC_CAPS_WindSpeed_IsbL-0650_RLatLon0.03_PT004H.grib2 2026-05-04 18:10 1.5M
20260504T12Z_MSC_CAPS_WindSpeed_IsbL-0700_RLatLon0.03_PT004H.grib2 2026-05-04 18:10 1.5M
20260504T12Z_MSC_CAPS_WindSpeed_IsbL-0750_RLatLon0.03_PT004H.grib2 2026-05-04 18:10 1.6M
20260504T12Z_MSC_CAPS_WindSpeed_IsbL-0800_RLatLon0.03_PT004H.grib2 2026-05-04 18:10 1.6M
20260504T12Z_MSC_CAPS_WindSpeed_IsbL-0850_RLatLon0.03_PT004H.grib2 2026-05-04 18:10 1.7M
20260504T12Z_MSC_CAPS_WindSpeed_IsbL-0875_RLatLon0.03_PT004H.grib2 2026-05-04 18:10 1.7M
20260504T12Z_MSC_CAPS_WindSpeed_IsbL-0900_RLatLon0.03_PT004H.grib2 2026-05-04 18:10 1.8M
20260504T12Z_MSC_CAPS_WindSpeed_IsbL-0925_RLatLon0.03_PT004H.grib2 2026-05-04 18:10 1.9M
20260504T12Z_MSC_CAPS_WindSpeed_IsbL-0950_RLatLon0.03_PT004H.grib2 2026-05-04 18:10 1.9M
20260504T12Z_MSC_CAPS_WindSpeed_IsbL-0970_RLatLon0.03_PT004H.grib2 2026-05-04 18:10 2.0M
20260504T12Z_MSC_CAPS_WindSpeed_IsbL-0985_RLatLon0.03_PT004H.grib2 2026-05-04 18:10 2.0M
20260504T12Z_MSC_CAPS_WindSpeed_IsbL-1000_RLatLon0.03_PT004H.grib2 2026-05-04 18:10 2.1M
20260504T12Z_MSC_CAPS_WindSpeed_IsbL-1015_RLatLon0.03_PT004H.grib2 2026-05-04 18:10 2.1M
20260504T12Z_MSC_CAPS_WindU_AGL-10m_RLatLon0.03_PT004H.grib2 2026-05-04 18:10 2.0M
20260504T12Z_MSC_CAPS_WindU_AGL-120m_RLatLon0.03_PT004H.grib2 2026-05-04 18:10 1.2M
20260504T12Z_MSC_CAPS_WindU_AGL-40m_RLatLon0.03_PT004H.grib2 2026-05-04 18:10 1.2M
20260504T12Z_MSC_CAPS_WindU_AGL-80m_RLatLon0.03_PT004H.grib2 2026-05-04 18:10 1.2M
20260504T12Z_MSC_CAPS_WindU_IsbL-0050_RLatLon0.03_PT004H.grib2 2026-05-04 18:10 952K
20260504T12Z_MSC_CAPS_WindU_IsbL-0100_RLatLon0.03_PT004H.grib2 2026-05-04 18:10 810K
20260504T12Z_MSC_CAPS_WindU_IsbL-0150_RLatLon0.03_PT004H.grib2 2026-05-04 18:10 932K
20260504T12Z_MSC_CAPS_WindU_IsbL-0175_RLatLon0.03_PT004H.grib2 2026-05-04 18:10 734K
20260504T12Z_MSC_CAPS_WindU_IsbL-0200_RLatLon0.03_PT004H.grib2 2026-05-04 18:10 881K
20260504T12Z_MSC_CAPS_WindU_IsbL-0225_RLatLon0.03_PT004H.grib2 2026-05-04 18:10 685K
20260504T12Z_MSC_CAPS_WindU_IsbL-0250_RLatLon0.03_PT004H.grib2 2026-05-04 18:10 707K
20260504T12Z_MSC_CAPS_WindU_IsbL-0275_RLatLon0.03_PT004H.grib2 2026-05-04 18:10 712K
20260504T12Z_MSC_CAPS_WindU_IsbL-0300_RLatLon0.03_PT004H.grib2 2026-05-04 18:10 724K
20260504T12Z_MSC_CAPS_WindU_IsbL-0350_RLatLon0.03_PT004H.grib2 2026-05-04 18:10 734K
20260504T12Z_MSC_CAPS_WindU_IsbL-0400_RLatLon0.03_PT004H.grib2 2026-05-04 18:10 738K
20260504T12Z_MSC_CAPS_WindU_IsbL-0450_RLatLon0.03_PT004H.grib2 2026-05-04 18:10 973K
20260504T12Z_MSC_CAPS_WindU_IsbL-0500_RLatLon0.03_PT004H.grib2 2026-05-04 18:10 1.0M
20260504T12Z_MSC_CAPS_WindU_IsbL-0550_RLatLon0.03_PT004H.grib2 2026-05-04 18:10 1.0M
20260504T12Z_MSC_CAPS_WindU_IsbL-0600_RLatLon0.03_PT004H.grib2 2026-05-04 18:10 940K
20260504T12Z_MSC_CAPS_WindU_IsbL-0650_RLatLon0.03_PT004H.grib2 2026-05-04 18:10 1.0M
20260504T12Z_MSC_CAPS_WindU_IsbL-0700_RLatLon0.03_PT004H.grib2 2026-05-04 18:10 1.0M
20260504T12Z_MSC_CAPS_WindU_IsbL-0750_RLatLon0.03_PT004H.grib2 2026-05-04 18:10 1.1M
20260504T12Z_MSC_CAPS_WindU_IsbL-0800_RLatLon0.03_PT004H.grib2 2026-05-04 18:10 1.1M
20260504T12Z_MSC_CAPS_WindU_IsbL-0850_RLatLon0.03_PT004H.grib2 2026-05-04 18:10 1.2M
20260504T12Z_MSC_CAPS_WindU_IsbL-0875_RLatLon0.03_PT004H.grib2 2026-05-04 18:10 1.2M
20260504T12Z_MSC_CAPS_WindU_IsbL-0900_RLatLon0.03_PT004H.grib2 2026-05-04 18:10 1.3M
20260504T12Z_MSC_CAPS_WindU_IsbL-0925_RLatLon0.03_PT004H.grib2 2026-05-04 18:10 1.3M
20260504T12Z_MSC_CAPS_WindU_IsbL-0950_RLatLon0.03_PT004H.grib2 2026-05-04 18:10 1.3M
20260504T12Z_MSC_CAPS_WindU_IsbL-0970_RLatLon0.03_PT004H.grib2 2026-05-04 18:10 1.4M
20260504T12Z_MSC_CAPS_WindU_IsbL-0985_RLatLon0.03_PT004H.grib2 2026-05-04 18:10 1.8M
20260504T12Z_MSC_CAPS_WindU_IsbL-1000_RLatLon0.03_PT004H.grib2 2026-05-04 18:10 1.8M
20260504T12Z_MSC_CAPS_WindU_IsbL-1015_RLatLon0.03_PT004H.grib2 2026-05-04 18:10 2.0M
20260504T12Z_MSC_CAPS_WindV_AGL-10m_RLatLon0.03_PT004H.grib2 2026-05-04 18:10 2.0M
20260504T12Z_MSC_CAPS_WindV_AGL-120m_RLatLon0.03_PT004H.grib2 2026-05-04 18:10 1.2M
20260504T12Z_MSC_CAPS_WindV_AGL-40m_RLatLon0.03_PT004H.grib2 2026-05-04 18:10 1.2M
20260504T12Z_MSC_CAPS_WindV_AGL-80m_RLatLon0.03_PT004H.grib2 2026-05-04 18:10 1.2M
20260504T12Z_MSC_CAPS_WindV_IsbL-0050_RLatLon0.03_PT004H.grib2 2026-05-04 18:10 781K
20260504T12Z_MSC_CAPS_WindV_IsbL-0100_RLatLon0.03_PT004H.grib2 2026-05-04 18:10 1.0M
20260504T12Z_MSC_CAPS_WindV_IsbL-0150_RLatLon0.03_PT004H.grib2 2026-05-04 18:10 719K
20260504T12Z_MSC_CAPS_WindV_IsbL-0175_RLatLon0.03_PT004H.grib2 2026-05-04 18:10 855K
20260504T12Z_MSC_CAPS_WindV_IsbL-0200_RLatLon0.03_PT004H.grib2 2026-05-04 18:10 872K
20260504T12Z_MSC_CAPS_WindV_IsbL-0225_RLatLon0.03_PT004H.grib2 2026-05-04 18:10 894K
20260504T12Z_MSC_CAPS_WindV_IsbL-0250_RLatLon0.03_PT004H.grib2 2026-05-04 18:10 918K
20260504T12Z_MSC_CAPS_WindV_IsbL-0275_RLatLon0.03_PT004H.grib2 2026-05-04 18:10 714K
20260504T12Z_MSC_CAPS_WindV_IsbL-0300_RLatLon0.03_PT004H.grib2 2026-05-04 18:10 723K
20260504T12Z_MSC_CAPS_WindV_IsbL-0350_RLatLon0.03_PT004H.grib2 2026-05-04 18:10 734K
20260504T12Z_MSC_CAPS_WindV_IsbL-0400_RLatLon0.03_PT004H.grib2 2026-05-04 18:10 737K
20260504T12Z_MSC_CAPS_WindV_IsbL-0450_RLatLon0.03_PT004H.grib2 2026-05-04 18:10 970K
20260504T12Z_MSC_CAPS_WindV_IsbL-0500_RLatLon0.03_PT004H.grib2 2026-05-04 18:10 1.0M
20260504T12Z_MSC_CAPS_WindV_IsbL-0550_RLatLon0.03_PT004H.grib2 2026-05-04 18:10 1.0M
20260504T12Z_MSC_CAPS_WindV_IsbL-0600_RLatLon0.03_PT004H.grib2 2026-05-04 18:10 938K
20260504T12Z_MSC_CAPS_WindV_IsbL-0650_RLatLon0.03_PT004H.grib2 2026-05-04 18:10 1.0M
20260504T12Z_MSC_CAPS_WindV_IsbL-0700_RLatLon0.03_PT004H.grib2 2026-05-04 18:10 1.0M
20260504T12Z_MSC_CAPS_WindV_IsbL-0750_RLatLon0.03_PT004H.grib2 2026-05-04 18:10 1.1M
20260504T12Z_MSC_CAPS_WindV_IsbL-0800_RLatLon0.03_PT004H.grib2 2026-05-04 18:10 1.1M
20260504T12Z_MSC_CAPS_WindV_IsbL-0850_RLatLon0.03_PT004H.grib2 2026-05-04 18:10 1.2M
20260504T12Z_MSC_CAPS_WindV_IsbL-0875_RLatLon0.03_PT004H.grib2 2026-05-04 18:10 1.2M
20260504T12Z_MSC_CAPS_WindV_IsbL-0900_RLatLon0.03_PT004H.grib2 2026-05-04 18:10 1.3M
20260504T12Z_MSC_CAPS_WindV_IsbL-0925_RLatLon0.03_PT004H.grib2 2026-05-04 18:10 1.3M
20260504T12Z_MSC_CAPS_WindV_IsbL-0950_RLatLon0.03_PT004H.grib2 2026-05-04 18:10 1.4M
20260504T12Z_MSC_CAPS_WindV_IsbL-0970_RLatLon0.03_PT004H.grib2 2026-05-04 18:10 1.4M
20260504T12Z_MSC_CAPS_WindV_IsbL-0985_RLatLon0.03_PT004H.grib2 2026-05-04 18:10 1.5M
20260504T12Z_MSC_CAPS_WindV_IsbL-1000_RLatLon0.03_PT004H.grib2 2026-05-04 18:10 1.8M
20260504T12Z_MSC_CAPS_WindV_IsbL-1015_RLatLon0.03_PT004H.grib2 2026-05-04 18:10 1.9M